Flag for Netherlands Weather past 2 weeks in Rotterdam, Netherlands

Now
55 °F

Drizzle. Broken clouds.


Feels Like: 51 °F
Forecast: 47 / 54 °F
Wind: 20 mph from Southwest

Location: Rotterdam Zestienhoven Airport

Current Time: Oct 21, 2014 at 12:45:26 PM

Latest Report: Oct 21, 2014 at 11:55 AM


Visibility: 6 mi

Pressure: 29.50 "Hg

Humidity: 94%

Dew point: 54 °F

Location of RotterdamLocation

Historic Weather in Rotterdam — Graph

°F

Rotterdam temperature yesterday

Maximum temperature yesterday: 63 °F (at 1:55 PM)
Minimum temperature yesterday: 57 °F (at 11:25 AM)
Average temperature yesterday: 60 °F

Past Weeks' High & Low Weather Summary

 TemperatureHumidityPressure
High73 °F (Oct 18, 3:55 PM)100% (Oct 11, 2:55 AM)30.01 "Hg (Oct 11, 2:55 AM)
Low46 °F (Oct 11, 4:25 AM)56% (Oct 9, 4:55 PM)29.39 "Hg (Oct 7, 10:55 AM)
Average58 °F85%29.75 "Hg
* Reported Oct 6 11:25 AM — Oct 21 11:55 AM, Rotterdam, Weather by CustomWeather, © 2014

Note: Actual official high and low records may vary slightly from our data, if they occured in-between our weather recording intervals... More about our weather records

Advertising

Rotterdam weather history for previous 24 hours

 ConditionsComfort  
Time TempWeatherWind HumidityBarometerVisibility
11:55 AM
Oct 21
55 °FDrizzle. Broken clouds.20 mph94%29.50 "Hg6 mi
11:25 AM54 °FRain showers. Broken clouds.21 mph100%29.53 "Hg4 mi
10:55 AM54 °FLight rain. Broken clouds.24 mph94%29.56 "Hg4 mi
10:25 AM54 °FLight rain. Broken clouds.21 mph94%29.59 "HgN/A
9:55 AM54 °FRain showers. Partly sunny.21 mph94%29.59 "Hg2 mi
9:25 AM55 °FDrizzle. Cloudy.21 mph88%29.62 "HgN/A
8:55 AM55 °FPassing clouds.17 mph88%29.62 "HgN/A
8:25 AM55 °FPartly cloudy.20 mph94%29.65 "Hg5 mi
7:55 AM55 °FLight rain. Passing clouds.20 mph94%29.68 "HgN/A
7:25 AM55 °FOvercast.16 mph94%29.68 "HgN/A
6:55 AM55 °FLight rain. Overcast.16 mph94%29.71 "Hg4 mi
6:25 AM55 °FPassing clouds.14 mph88%29.71 "HgN/A
5:55 AM55 °FPassing clouds.14 mph88%29.74 "HgN/A
4:55 AM57 °FMostly cloudy.15 mph88%29.77 "HgN/A
4:25 AM55 °FPassing clouds.13 mph94%29.80 "HgN/A
3:55 AM57 °FPassing clouds.14 mph88%29.80 "HgN/A
3:25 AM57 °FPartly cloudy.14 mph88%29.83 "HgN/A
2:55 AM57 °FPassing clouds.12 mph82%29.83 "HgN/A
2:25 AM57 °FPassing clouds.13 mph82%29.83 "HgN/A
1:55 AM57 °FPassing clouds.10 mph88%29.86 "HgN/A
1:25 AM57 °FSprinkles. Mostly cloudy.6 mph88%29.86 "Hg6 mi
12:55 AM57 °FPartly cloudy.10 mph88%29.86 "HgN/A
12:25 AM59 °FClear.12 mph82%29.86 "HgN/A
11:55 PM
Oct 20
59 °FPassing clouds.15 mph82%29.89 "HgN/A
11:25 PM59 °FClear.14 mph82%29.89 "HgN/A
10:55 PM59 °FPartly cloudy.13 mph82%29.89 "HgN/A
10:25 PM59 °FPassing clouds.15 mph82%29.89 "HgN/A
9:55 PM59 °FPassing clouds.12 mph82%29.92 "HgN/A
9:25 PM59 °FClear.13 mph82%29.92 "HgN/A
8:55 PM59 °FClear.13 mph82%29.92 "HgN/A
8:25 PM59 °FClear.13 mph82%29.92 "HgN/A
7:55 PM59 °FClear.14 mph82%29.92 "HgN/A
7:25 PM59 °FClear.12 mph82%29.92 "HgN/A
6:55 PM59 °FClear.13 mph77%29.95 "HgN/A
6:25 PM59 °FClear.12 mph77%29.95 "HgN/A
5:55 PM59 °FPassing clouds.15 mph77%29.95 "HgN/A
5:25 PM59 °FPassing clouds.12 mph77%29.95 "HgN/A
4:55 PM59 °FScattered clouds.12 mph77%29.95 "HgN/A
4:25 PM61 °FScattered clouds.15 mph72%29.95 "HgN/A
3:55 PM61 °FPassing clouds.17 mph72%29.98 "HgN/A
3:25 PM61 °FBroken clouds.20 mph72%29.98 "HgN/A
2:55 PM61 °FPartly sunny.15 mph77%29.98 "HgN/A
2:25 PM61 °FPassing clouds.15 mph72%29.98 "HgN/A
1:55 PM63 °FClear.14 mph68%29.98 "HgN/A
1:25 PM61 °FPassing clouds.14 mph72%30.01 "HgN/A
12:55 PM61 °FPassing clouds.12 mph72%30.01 "HgN/A
12:25 PM61 °FBroken clouds.17 mph77%30.01 "HgN/A
Weather by CustomWeather, © 2014

See weather overviewHow to use our weather pages